• In Hungary
  • List of Countries
  • For 7 days
  • Water Temperature
  • Satellite Maps
  • Weather Map
  • News
  • Weather Widgets
  • user-avatar
    Login

    Hourly Weather Kidsgrove

    Today, 23 January, Tuesday

    Time Temperature Precipitation Wind Pressure Humidity
    00:00 +3°C° 0 mm 4 mps 745 mmHg 92%
    01:00 +3°C° 0 mm 4 mps 744 mmHg 93%
    02:00 +3°C° 0 mm 5 mps 743 mmHg 93%
    03:00 +3°C° 0 mm 5 mps 743 mmHg 94%
    04:00 +4°C° 0.1 mm 6 mps 742 mmHg 94%
    05:00 +4°C° 0.1 mm 6 mps 742 mmHg 94%
    06:00 +5°C° 0 mm 6 mps 741 mmHg 94%
    07:00 +7°C° 0.3 mm 6 mps 741 mmHg 94%
    08:00 +8°C° 0.3 mm 7 mps 741 mmHg 93%
    09:00 +9°C° 0.3 mm 7 mps 740 mmHg 93%
    10:00 +9°C° 0 mm 7 mps 740 mmHg 91%
    11:00 +9°C° 0 mm 7 mps 740 mmHg 89%
    12:00 +10°C° 0 mm 7 mps 740 mmHg 87%
    13:00 +10°C° 0.1 mm 7 mps 740 mmHg 87%
    14:00 +10°C° 0.1 mm 7 mps 740 mmHg 87%
    15:00 +9°C° 0.1 mm 7 mps 739 mmHg 87%
    16:00 +9°C° 0.1 mm 6 mps 740 mmHg 87%
    17:00 +9°C° 0.1 mm 6 mps 740 mmHg 87%
    18:00 +8°C° 0.1 mm 6 mps 740 mmHg 87%
    19:00 +8°C° 0 mm 6 mps 740 mmHg 87%
    20:00 +7°C° 0 mm 5 mps 740 mmHg 88%
    21:00 +7°C° 0 mm 5 mps 741 mmHg 89%
    22:00 +7°C° 0 mm 6 mps 740 mmHg 89%
    23:00 +7°C° 0 mm 6 mps 740 mmHg 88%

    Tomorrow, 24 January, Wednesday

    Time Temperature Precipitation Wind Pressure Humidity
    00:00 +6°C° 0 mm 7 mps 739 mmHg 88%
    01:00 +7°C° 0 mm 8 mps 738 mmHg 87%
    02:00 +7°C° 0 mm 9 mps 737 mmHg 86%
    03:00 +7°C° 0 mm 10 mps 735 mmHg 84%
    04:00 +8°C° 0.4 mm 11 mps 734 mmHg 84%
    05:00 +9°C° 0.4 mm 12 mps 732 mmHg 83%
    06:00 +9°C° 0.4 mm 13 mps 731 mmHg 83%
    07:00 +8°C° 2.2 mm 12 mps 731 mmHg 82%
    08:00 +7°C° 2.2 mm 10 mps 731 mmHg 81%
    09:00 +6°C° 2.2 mm 9 mps 731 mmHg 80%
    10:00 +5°C° 0.3 mm 8 mps 732 mmHg 77%
    11:00 +5°C° 0.3 mm 8 mps 733 mmHg 73%
    12:00 +5°C° 0.3 mm 8 mps 733 mmHg 70%
    13:00 +5°C° 0 mm 8 mps 734 mmHg 69%
    14:00 +5°C° 0 mm 7 mps 734 mmHg 68%
    15:00 +5°C° 0 mm 7 mps 734 mmHg 68%
    16:00 +5°C° 0 mm 7 mps 734 mmHg 70%
    17:00 +4°C° 0 mm 7 mps 734 mmHg 73%
    18:00 +3°C° 0 mm 7 mps 735 mmHg 76%
    19:00 +3°C° 0 mm 6 mps 735 mmHg 76%
    20:00 +3°C° 0 mm 6 mps 735 mmHg 76%
    21:00 +3°C° 0 mm 6 mps 735 mmHg 77%
    22:00 +3°C° 0 mm 6 mps 735 mmHg 77%
    23:00 +2°C° 0 mm 6 mps 735 mmHg 77%

    Day after tomorrow, 25 January, Thursday

    Time Temperature Precipitation Wind Pressure Humidity
    00:00 +2°C° 0 mm 6 mps 735 mmHg 77%
    01:00 +2°C° 0 mm 6 mps 735 mmHg 78%
    02:00 +2°C° 0 mm 6 mps 735 mmHg 78%
    03:00 +2°C° 0 mm 5 mps 735 mmHg 79%
    04:00 +2°C° 0 mm 5 mps 735 mmHg 79%
    05:00 +2°C° 0 mm 5 mps 735 mmHg 80%
    06:00 +2°C° 0 mm 5 mps 735 mmHg 80%
    07:00 +2°C° 0 mm 5 mps 735 mmHg 79%
    08:00 +2°C° 0 mm 6 mps 735 mmHg 78%
    09:00 +2°C° 0 mm 6 mps 735 mmHg 78%
    10:00 +3°C° 0 mm 6 mps 735 mmHg 74%
    11:00 +4°C° 0 mm 7 mps 735 mmHg 70%
    12:00 +5°C° 0 mm 8 mps 735 mmHg 66%
    13:00 +4°C° 0.2 mm 7 mps 735 mmHg 68%
    14:00 +4°C° 0.2 mm 7 mps 735 mmHg 71%
    15:00 +4°C° 0.2 mm 6 mps 735 mmHg 73%
    16:00 +4°C° 0.1 mm 6 mps 735 mmHg 75%
    17:00 +3°C° 0.1 mm 5 mps 736 mmHg 78%
    18:00 +2°C° 0.1 mm 5 mps 737 mmHg 80%
    19:00 +2°C° 0.1 mm 5 mps 737 mmHg 81%
    20:00 +3°C° 0.1 mm 4 mps 738 mmHg 83%
    21:00 +1°C° 0.1 mm 4 mps 739 mmHg 84%
    22:00 +1°C° 0 mm 4 mps 739 mmHg 84%
    23:00 +1°C° 0 mm 4 mps 740 mmHg 85%

    26 January, Friday

    Time Temperature Precipitation Wind Pressure Humidity
    00:00 +1°C° 0 mm 5 mps 740 mmHg 85%
    01:00 +1°C° 0 mm 5 mps 741 mmHg 85%
    02:00 +1°C° 0 mm 5 mps 741 mmHg 85%
    03:00 +1°C° 0 mm 5 mps 742 mmHg 85%
    04:00 +1°C° 0 mm 5 mps 742 mmHg 86%
    05:00 +1°C° 0 mm 5 mps 743 mmHg 86%
    06:00 +1°C° 0 mm 5 mps 743 mmHg 86%
    07:00 +1°C° 0 mm 5 mps 744 mmHg 86%
    08:00 +1°C° 0 mm 5 mps 745 mmHg 86%
    09:00 +2°C° 0 mm 5 mps 745 mmHg 86%
    10:00 +3°C° 0 mm 5 mps 746 mmHg 82%
    11:00 +5°C° 0 mm 5 mps 747 mmHg 78%
    12:00 +5°C° 0 mm 5 mps 747 mmHg 74%
    13:00 +5°C° 0 mm 5 mps 747 mmHg 75%
    14:00 +5°C° 0 mm 5 mps 748 mmHg 76%
    15:00 +5°C° 0 mm 4 mps 748 mmHg 77%
    16:00 +4°C° 0 mm 4 mps 748 mmHg 80%
    17:00 +3°C° 0 mm 3 mps 749 mmHg 84%
    18:00 +4°C° 0 mm 2 mps 749 mmHg 87%
    19:00 +3°C° 0 mm 2 mps 749 mmHg 88%
    20:00 +3°C° 0 mm 2 mps 750 mmHg 89%
    21:00 +3°C° 0 mm 2 mps 750 mmHg 90%
    22:00 +3°C° 0 mm 2 mps 750 mmHg 90%
    23:00 +2°C° 0 mm 2 mps 750 mmHg 90%

    27 January, Saturday

    Time Temperature Precipitation Wind Pressure Humidity
    00:00 +2°C° 0 mm 2 mps 750 mmHg 90%
    01:00 +2°C° 0.1 mm 2 mps 750 mmHg 90%
    02:00 +2°C° 0.1 mm 2 mps 750 mmHg 90%
    03:00 +2°C° 0.1 mm 2 mps 750 mmHg 90%
    04:00 +2°C° 0 mm 2 mps 750 mmHg 91%
    05:00 +2°C° 0 mm 3 mps 750 mmHg 92%
    06:00 +2°C° 0 mm 3 mps 750 mmHg 93%
    07:00 +2°C° 0 mm 3 mps 750 mmHg 94%
    08:00 +3°C° 0 mm 3 mps 750 mmHg 95%
    09:00 +3°C° 0 mm 3 mps 751 mmHg 95%
    10:00 +4°C° 0.2 mm 4 mps 750 mmHg 94%
    11:00 +5°C° 0.2 mm 4 mps 750 mmHg 93%
    12:00 +6°C° 0.2 mm 5 mps 750 mmHg 92%
    13:00 +6°C° 0.7 mm 5 mps 750 mmHg 93%
    14:00 +7°C° 0.7 mm 5 mps 749 mmHg 93%
    15:00 +7°C° 0.7 mm 5 mps 749 mmHg 94%
    16:00 +8°C° 0.3 mm 5 mps 749 mmHg 94%
    17:00 +8°C° 0.3 mm 5 mps 749 mmHg 93%
    18:00 +9°C° 0.3 mm 5 mps 750 mmHg 93%
    19:00 +9°C° 0.1 mm 5 mps 750 mmHg 93%
    20:00 +9°C° 0.1 mm 5 mps 751 mmHg 93%
    21:00 +9°C° 0.1 mm 5 mps 751 mmHg 93%
    22:00 +9°C° 0 mm 5 mps 751 mmHg 93%
    23:00 +9°C° 0 mm 5 mps 752 mmHg 92%

    28 January, Sunday

    Time Temperature Precipitation Wind Pressure Humidity
    00:00 +9°C° 0 mm 5 mps 752 mmHg 92%
    01:00 +9°C° 0.1 mm 5 mps 753 mmHg 92%
    02:00 +9°C° 0.1 mm 5 mps 753 mmHg 92%
    03:00 +9°C° 0.1 mm 5 mps 753 mmHg 92%
    04:00 +9°C° 0.1 mm 5 mps 754 mmHg 92%
    05:00 +9°C° 0.1 mm 5 mps 754 mmHg 92%
    06:00 +9°C° 0.1 mm 5 mps 754 mmHg 92%
    07:00 +9°C° 0 mm 5 mps 754 mmHg 92%
    08:00 +9°C° 0 mm 5 mps 755 mmHg 91%
    09:00 +9°C° 0 mm 5 mps 755 mmHg 91%
    10:00 +10°C° 0 mm 6 mps 756 mmHg 89%
    11:00 +10°C° 0 mm 6 mps 756 mmHg 86%
    12:00 +11°C° 0 mm 6 mps 756 mmHg 84%
    13:00 +11°C° 0 mm 6 mps 756 mmHg 83%
    14:00 +10°C° 0 mm 6 mps 756 mmHg 82%
    15:00 +10°C° 0 mm 6 mps 756 mmHg 82%
    16:00 +10°C° 0 mm 5 mps 756 mmHg 84%
    17:00 +10°C° 0 mm 4 mps 756 mmHg 86%
    18:00 +8°C° 0 mm 4 mps 756 mmHg 87%
    19:00 +8°C° 0 mm 4 mps 756 mmHg 88%
    20:00 +8°C° 0 mm 4 mps 757 mmHg 89%
    21:00 +7°C° 0 mm 4 mps 757 mmHg 90%
    22:00 +7°C° 0 mm 4 mps 757 mmHg 91%
    23:00 +7°C° 0 mm 4 mps 756 mmHg 91%
    Show more